Location: ????????
(38.4362°N, 22.8767°E)
Time: 08:56:13
(UTC+00:00)

Cosmos 1655 Rocket - Visible Passes

Search period start: 24 July 2024 00:00
Search period end: 03 August 2024 00:00
Orbit: 969 x 1006 km, 82.9° (Epoch: 23 July)

Date Brightness Start Highest point End Pass type
(mag) Time Alt. Az. Time Alt. Az. Time Alt. Az.
24 Jul 5.7 01:50:34 10° NNE 01:56:08 34° ENE 02:01:42 10° SE visible
25 Jul 4.4 02:19:15 10° N 02:25:26 67° E 02:31:38 10° SSE visible
26 Jul 6.5 01:04:17 10° NNE 01:08:24 18° ENE 01:12:30 10° ESE visible
26 Jul 4.1 02:48:23 10° NNW 02:54:31 63° W 03:00:39 10° S visible
27 Jul 5.5 01:32:16 10° N 01:37:55 35° ENE 01:43:32 10° SE visible
28 Jul 4.3 02:00:59 10° N 02:07:11 70° E 02:13:24 10° SSE visible
29 Jul 6.4 00:45:54 10° NNE 00:50:11 19° ENE 00:54:26 10° ESE visible
29 Jul 4.1 02:30:09 10° NNW 02:36:15 60° W 02:42:22 10° S visible
30 Jul 5.4 01:13:58 10° N 01:19:41 37° ENE 01:25:23 10° SE visible
31 Jul 4.2 01:42:42 10° N 01:48:56 73° E 01:55:11 10° SSE visible
01 Aug 6.2 00:27:32 10° NNE 00:31:57 20° ENE 00:36:22 10° ESE visible
01 Aug 4.1 02:11:55 10° NNW 02:18:00 58° W 02:24:06 10° S visible
02 Aug 5.2 00:55:39 10° N 01:01:26 38° ENE 01:07:13 10° SE visible
02 Aug 4.9 02:41:38 10° NNW 02:46:51 29° W 02:52:05 10° SW visible
